RH
3 3 3 3 3 3 3 3 3 4 4 5 5 5 6 7 8 9 10 11 12 15 17 18 20 22 24 25 26 26 25 25 24 23 22 20 19 17 16 18 22 27 32 33 32 30 31 34 41 51 65 77 86 93 99 102 103 102 101 98 97 95 92 90 87 79 73 71 69 64 56 50 48 49
3 3 3 3 3 3 3 3 3 3 4 4 5 5 5 5 6 7 8 9 10 12 14 16 18 20 22 24 25 26 26 27 26 26 26 24 22 21 19 18 17 20 24 29 34 35 33 31 31 32 38 51 65 78 88 96 101 104 105 104 104 103 102 102 101 95 87 81 79 76 73 68 61 56
2 2 3 3 3 3 3 3 3 3 3 4 4 5 5 5 5 5 6 7 8 9 11 13 16 18 20 22 24 25 26 27 27 27 27 27 26 25 23 21 19 18 19 21 26 32 37 37 35 32 29 30 38 52 65 77 87 96 102 106 107 106 105 105 107 107 103 98 92 83 78 79 79 75
2 2 2 3 3 3 3 3 3 3 3 3 3 4 4 4 5 5 5 5 6 7 9 10 12 14 17 19 21 23 25 26 27 27 27 27 28 27 26 24 22 20 19 19 20 23 29 34 38 39 37 32 29 31 40 51 62 74 84 94 102 106 107 106 106 107 108 109 106 97 87 83 85 88
2 2 2 2 2 3 3 3 3 3 3 3 3 3 3 4 4 4 5 5 6 6 7 8 9 11 13 15 18 21 23 24 25 26 26 27 28 28 28 26 25 23 21 20 20 19 21 25 30 35 39 41 38 33 30 33 39 48 58 68 80 91 99 105 107 108 108 110 109 105 99 90 85 88
2 2 2 2 2 2 3 3 3 3 3 3 3 3 3 3 3 4 4 4 5 6 7 7 7 9 10 12 14 16 19 22 24 24 25 26 28 28 29 29 27 26 24 22 21 20 20 20 21 24 29 35 41 42 39 34 31 33 38 44 52 62 74 85 95 102 107 111 111 109 106 100 91 85
2 3 2 2 2 2 2 3 3 3 3 3 3 3 3 3 3 3 3 4 4 6 7 7 7 8 8 9 10 12 14 18 20 22 23 24 26 27 28 29 29 29 27 25 23 21 21 20 20 21 22 24 29 37 43 45 41 35 33 33 34 38 46 55 66 78 89 97 104 108 109 106 99 87
3 3 3 2 2 2 2 2 2 3 3 3 3 3 3 3 3 3 3 3 3 4 6 7 7 7 8 7 8 9 10 12 15 19 20 22 24 25 26 28 29 30 30 28 26 24 22 21 21 21 22 22 22 24 32 42 48 46 42 38 35 32 32 35 40 48 59 70 80 90 97 100 101 94
3 3 3 3 2 2 2 2 2 2 3 3 3 3 3 3 3 3 3 2 3 3 4 6 6 7 7 7 7 7 8 9 10 13 16 18 20 22 24 25 27 29 31 31 30 27 24 22 21 21 22 23 23 22 23 28 39 48 50 47 45 41 37 33 31 32 36 43 51 60 70 78 85 90
3 3 3 3 3 3 2 2 2 2 2 2 3 3 3 3 3 3 3 3 3 3 3 4 5 6 6 7 7 7 7 7 8 9 11 14 16 18 19 22 23 25 28 30 30 30 28 25 22 21 21 23 24 24 22 22 25 35 44 49 50 50 49 45 39 35 32 31 33 36 42 50 58 67
3 3 3 3 3 3 3 3 2 2 2 2 2 3 3 3 3 3 3 3 3 3 3 3 4 4 5 5 6 6 6 6 6 7 8 9 12 15 17 18 20 22 24 26 28 29 29 27 25 22 20 20 23 24 24 23 21 23 31 40 46 50 53 55 53 48 42 38 35 32 30 32 37 41
4 4 3 3 3 3 3 3 3 3 2 2 2 2 2 3 3 3 3 3 3 3 3 3 3 3 4 4 4 5 6 6 6 6 7 7 9 11 14 17 19 20 20 22 24 25 26 26 26 24 21 19 20 22 24 24 23 21 22 28 36 43 48 53 58 60 57 52 47 43 38 34 32 31
4 4 4 4 4 3 3 3 3 3 3 3 2 2 2 2 2 3 3 3 3 3 3 3 3 3 3 3 4 4 4 5 5 5 6 6 7 8 10 12 15 17 18 18 19 21 22 24 24 24 23 21 19 19 21 22 23 23 22 22 26 33 39 44 49 57 63 65 62 57 53 48 43 39
3 4 4 4 4 4 3 3 3 3 3 3 3 2 2 2 2 2 2 3 3 3 3 3 3 3 3 3 3 3 4 4 4 5 5 5 6 7 7 8 10 13 15 16 17 18 19 20 21 21 22 22 20 19 19 20 21 22 23 23 22 25 30 35 39 44 52 62 69 69 66 62 58 53
3 3 3 4 4 4 4 3 3 3 3 3 3 3 3 2 2 2 2 2 3 3 3 3 3 3 3 3 3 3 3 3 3 4 4 5 5 5 6 6 7 9 11 13 15 17 17 17 18 19 20 20 20 19 19 19 20 20 21 22 22 22 24 27 31 34 38 45 57 67 73 73 70 66
2 2 3 3 3 4 4 4 3 3 3 3 3 3 3 3 3 2 2 2 2 2 3 3 3 3 3 3 3 3 3 3 3 3 3 4 4 5 5 5 6 7 8 10 12 14 15 16 16 17 17 18 18 18 18 18 18 19 19 19 20 20 21 23 25 28 30 32 38 48 61 71 76 76
2 3 2 2 3 3 3 4 4 3 3 3 3 3 3 3 3 3 3 2 2 2 2 3 3 3 3 3 3 3 3 3 3 3 3 3 3 3 4 5 5 6 6 7 8 10 12 14 15 15 16 17 17 17 17 17 16 17 18 18 18 18 19 21 22 24 25 27 29 32 40 52 63 72
3 3 2 2 2 2 3 3 4 4 4 3 3 3 3 3 3 3 3 3 3 2 2 2 2 2 3 3 3 3 3 3 3 3 3 3 3 3 3 3 4 5 5 6 6 7 8 10 12 14 15 16 17 17 16 16 16 15 16 17 17 17 17 18 20 22 23 24 25 26 28 33 41 50
3 3 3 3 2 2 2 2 3 3 3 4 4 3 3 3 3 3 3 3 3 3 3 2 2 2 2 3 3 3 3 3 3 3 3 3 3 3 3 3 3 4 4 5 5 5 6 7 8 10 13 15 16 17 17 17 16 15 15 15 16 17 17 17 18 19 21 22 23 24 25 26 28 32
3 3 3 3 3 3 3 2 2 3 3 3 3 4 4 3 3 3 3 3 3 3 3 3 3 3 2 2 2 3 3 3 3 3 3 3 3 3 3 3 3 3 3 3 4 4 5 6 7 8 9 11 13 14 16 17 17 16 15 15 15 16 17 18 18 18 19 20 21 22 24 24 25 26
4 3 3 3 3 3 3 3 3 2 2 3 3 3 3 3 4 3 3 3 3 3 3 3 3 3 3 3 3 2 2 3 3 3 3 3 3 3 3 3 3 3 3 3 3 3 4 4 6 6 7 8 9 11 12 14 16 16 16 15 15 15 16 17 18 19 19 20 21 21 22 24 24 25
4 4 4 3 3 3 3 3 3 3 3 3 2 3 3 3 3 3 3 3 3 3 3 3 3 3 3 3 3 2 2 2 2 3 3 3 3 3 3 3 3 3 3 3 3 3 3 3 4 5 6 7 7 8 9 11 12 14 14 15 15 15 16 16 17 18 20 21 22 22 22 23 24 25
4 4 4 4 4 4 3 3 3 3 3 3 3 3 3 2 3 3 3 3 3 3 3 3 3 3 3 3 3 3 3 3 2 2 2 2 3 3 3 3 3 3 3 3 3 3 3 3 3 3 4 5 6 7 8 9 10 11 12 13 14 14 15 16 17 18 19 21 22 23 23 23 24 24
5 4 4 4 4 4 4 4 4 3 3 3 3 3 3 3 3 3 2 3 3 3 3 3 3 3 3 3 3 3 3 3 3 2 3 2 2 3 3 3 3 3 3 3 3 3 3 3 3 3 3 4 4 5 6 7 8 9 10 11 11 12 13 14 16 17 18 19 21 23 24 24 24 24
5 5 5 5 5 5 5 4 4 4 4 4 3 3 3 3 3 3 3 2 3 3 3 3 3 3 3 3 3 3 3 3 3 3 3 3 2 2 2 3 3 3 3 3 3 3 3 3 3 3 3 3 4 4 5 5 6 8 9 9 10 10 11 12 14 15 16 18 19 21 23 24 25 25
5 5 5 5 5 5 5 5 5 5 5 4 4 4 3 3 3 3 3 3 3 2 2 3 3 3 3 3 3 3 3 3 3 3 3 3 3 3 2 2 3 3 3 3 3 3 3 3 3 3 3 3 4 4 4 4 5 6 7 8 9 9 10 11 11 13 14 15 16 17 19 21 23 25
5 5 5 5 5 5 6 5 5 5 5 5 5 4 4 4 3 3 3 3 3 3 2 2 2 2 3 3 3 3 3 3 3 3 3 3 3 3 3 3 3 3 3 3 3 3 3 3 3 3 3 3 4 4 4 4 4 5 5 6 7 7 8 10 10 11 12 12 13 14 15 17 19 21
5 5 5 5 5 5 5 5 5 5 5 5 5 5 5 4 4 4 3 3 3 3 3 2 2 2 2 2 2 2 3 3 3 3 3 3 3 3 3 3 3 3 3 3 3 3 4 4 4 4 3 3 4 4 4 4 4 4 5 5 5 6 6 8 9 10 10 11 11 12 13 14 16 17
6 6 5 5 5 5 5 5 5 5 5 5 5 5 5 5 4 4 4 3 3 3 3 3 3 3 2 2 2 2 3 3 3 3 3 3 3 3 3 3 3 3 3 3 3 3 3 3 4 4 4 4 4 4 4 4 4 4 5 5 5 5 5 6 7 8 9 10 11 11 12 12 13 14
7 7 7 6 6 5 5 5 5 5 5 5 5 5 5 5 5 4 4 4 4 3 3 3 3 3 3 3 2 2 2 2 3 3 3 3 3 3 3 3 3 3 3 3 3 3 3 3 3 4 4 4 4 4 4 4 4 4 5 5 5 5 5 5 6 6 7 8 9 10 11 12 12 13
7 7 7 7 7 6 6 6 5 5 5 5 5 4 4 4 4 4 4 4 4 4 3 3 3 3 3 3 3 3 2 2 2 2 3 3 3 3 3 3 3 3 3 3 3 3 3 3 3 3 4 4 4 4 4 4 4 4 5 5 5 5 5 5 5 6 6 6 7 8 9 10 11 12
7 7 7 7 7 7 7 6 6 6 5 5 5 4 5 4 4 4 4 4 4 4 4 4 4 3 3 2 3 3 2 2 3 2 2 3 3 3 3 3 3 3 3 3 3 3 3 3 3 3 3 3 4 4 4 5 5 4 5 5 5 5 5 5 5 5 6 6 6 7 7 8 9 10
7 7 7 7 6 6 6 6 6 6 6 5 5 5 5 5 4 4 4 4 4 4 4 4 4 4 4 3 3 3 3 2 3 2 2 3 2 3 3 3 3 3 3 3 4 3 3 3 3 3 3 3 4 4 5 5 5 5 5 5 5 5 5 5 6 6 6 6 6 6 7 7 7 8
8 7 7 7 7 6 6 6 6 6 6 6 6 6 6 5 5 5 4 4 4 4 4 4 4 4 4 4 3 3 3 3 3 3 3 3 3 3 3 3 3 3 3 3 3 3 4 4 3 3 3 3 4 4 5 5 5 5 6 6 5 6 6 6 6 6 6 6 6 6 7 7 7 7
9 8 7 7 7 8 8 8 7 6 6 6 6 6 6 6 5 5 4 4 4 4 4 4 4 4 4 4 4 4 3 3 3 3 3 3 3 3 3 3 3 3 3 4 4 3 3 4 4 4 3 3 4 4 4 5 6 6 6 6 6 6 6 6 6 6 6 7 7 7 7 7 7 7
10 10 9 7 8 9 9 9 9 8 8 7 7 7 7 7 6 6 5 5 4 4 4 4 4 4 4 4 4 5 4 4 3 3 3 3 3 3 3 3 3 3 3 3 4 4 4 4 4 4 4 4 4 4 4 5 5 6 6 6 6 7 7 7 7 7 7 8 8 8 8 8 8 8
11 11 10 9 9 10 11 10 10 11 10 9 8 8 7 7 7 6 6 5 5 4 4 4 4 4 4 4 4 5 5 5 4 4 3 3 3 3 3 3 3 3 3 3 3 4 4 4 4 4 4 4 4 4 4 5 5 6 6 6 6 7 7 7 8 7 8 8 8 9 9 9 9 9
12 11 11 10 10 10 12 12 12 12 12 11 10 9 8 8 7 7 7 6 6 5 5 4 4 4 4 4 4 4 4 5 5 5 4 4 4 3 3 3 3 3 3 3 3 4 4 4 4 5 5 5 5 5 5 5 6 6 6 6 7 7 7 7 7 8 8 8 8 8 9 9 9 9
14 13 12 11 11 11 12 12 13 13 13 12 12 11 10 9 8 8 7 7 7 6 5 5 4 4 4 4 4 4 4 5 5 6 6 5 4 4 4 3 3 3 3 3 3 3 4 4 4 4 5 5 5 5 5 6 6 6 7 7 7 7 7 7 7 8 8 8 9 9 9 9 9 9
14 14 14 13 12 11 11 13 14 14 14 14 14 14 13 12 11 10 9 8 7 7 7 6 5 5 5 5 5 5 5 5 5 6 6 6 6 5 4 4 4 4 4 3 3 4 4 4 4 4 4 5 5 5 6 6 6 6 7 7 8 8 8 8 8 8 9 9 9 9 9 9 9 9
14 14 15 14 13 12 12 12 14 15 16 17 18 17 16 15 13 12 11 10 9 8 8 7 6 5 5 5 5 5 5 5 5 5 6 6 7 6 6 5 5 4 4 4 4 4 4 4 4 4 4 5 5 5 6 6 6 6 7 7 8 8 8 9 9 9 10 10 10 10 10 10 10 10
13 14 15 15 15 14 13 13 14 15 17 19 20 21 20 18 16 15 14 13 12 11 10 9 8 7 6 5 5 5 5 5 5 5 5 6 6 7 7 7 6 5 5 5 4 4 4 4 4 4 4 5 5 5 5 5 5 6 7 7 7 8 8 9 9 9 10 10 10 10 10 10 11 11
12 14 15 16 16 16 15 14 14 15 17 20 23 24 24 22 20 18 16 14 13 13 12 11 11 10 8 7 6 6 6 6 6 6 6 6 6 6 7 8 8 8 7 6 5 5 5 5 5 5 4 5 5 5 5 5 5 6 6 6 7 7 8 8 9 10 10 11 11 11 11 11 11 12
11 13 14 15 17 17 16 15 15 15 17 20 24 27 28 27 24 21 19 17 15 14 13 13 13 13 12 10 9 7 6 6 6 6 6 6 6 6 7 7 8 9 9 8 7 7 6 5 6 6 5 5 5 5 5 5 5 6 6 6 6 7 7 8 8 9 10 10 11 11 12 12 12 12
11 12 13 14 16 17 18 17 16 16 17 20 24 29 31 31 28 26 22 20 18 16 15 15 15 15 15 14 13 11 9 8 7 7 7 7 7 7 7 7 7 8 9 10 10 10 9 8 7 6 6 6 6 6 6 6 6 5 6 6 7 7 7 7 7 8 8 9 9 10 11 11 12 12
Wind_Speed
96 99 102 104 107 109 112 114 116 118 121 123 126 129 132 134 136 137 139 139 139 139 141 142 143 145 146 147 148 149 149 149 149 148 148 148 148 149 150 152 153 153 153 153 152 153 154 155 156 156 156 156 155 155 154 153 153 152 151 150 150 149 148 147 147 147 146 145 144 144 142 140 139 138
92 95 98 100 103 106 110 112 113 115 117 120 122 125 128 131 133 136 138 139 138 139 140 140 141 143 145 146 147 149 149 149 149 149 149 149 149 150 150 151 151 153 154 154 153 152 152 153 154 155 155 155 156 156 156 155 155 155 154 153 153 152 151 150 150 150 148 147 147 146 145 143 141 140
88 90 93 96 99 103 106 109 111 112 114 116 119 121 124 126 129 132 135 137 137 138 140 141 141 142 143 145 147 149 150 150 150 151 150 150 151 151 151 151 151 151 152 153 154 153 153 153 152 153 153 154 154 155 156 156 157 157 156 156 155 155 154 153 153 152 151 150 150 149 147 145 144 143
83 86 88 91 95 99 103 105 108 110 111 113 115 118 120 122 124 127 131 133 134 137 140 142 142 143 144 145 146 148 149 150 151 151 151 151 151 152 152 152 152 151 151 152 153 154 154 154 154 153 152 152 152 153 154 155 156 157 157 157 157 157 156 156 155 154 154 153 153 152 150 148 147 145
78 81 84 86 89 94 98 101 104 106 109 111 113 115 117 119 121 123 126 127 129 133 138 141 142 144 145 147 147 148 148 150 151 152 152 152 152 152 152 152 153 153 152 152 152 153 154 155 155 155 154 153 152 151 152 152 153 155 157 157 158 158 158 158 157 157 156 156 155 155 153 152 150 148
73 76 80 82 85 88 92 96 100 102 105 107 110 112 114 116 118 120 121 122 124 128 134 137 139 142 145 147 149 150 149 150 151 152 153 153 153 153 153 153 153 154 154 153 153 153 153 154 155 156 156 155 153 152 151 151 151 152 154 155 157 157 158 158 158 158 158 158 157 157 156 155 154 152
68 71 74 77 81 83 86 90 94 98 101 104 106 108 111 113 115 117 119 120 121 124 130 133 135 139 144 147 149 151 152 152 152 153 154 154 154 154 153 153 153 154 155 155 155 154 154 154 154 155 156 156 155 154 152 152 151 151 151 152 154 155 157 158 158 158 158 158 159 159 158 158 158 157
64 66 69 72 75 79 82 86 89 93 97 100 102 104 107 109 112 114 117 118 119 121 125 129 132 136 141 144 146 149 151 153 154 155 155 155 155 155 154 154 154 154 155 156 156 156 156 155 154 154 155 155 155 155 154 153 153 152 151 151 151 152 153 155 156 157 157 158 158 159 159 159 159 160
60 62 65 67 70 74 78 81 84 87 91 95 98 101 103 105 108 111 113 114 115 118 121 124 128 132 136 140 142 145 148 151 154 156 157 157 157 156 156 156 155 155 155 156 157 158 158 157 156 155 155 155 156 156 155 154 154 154 153 152 151 151 151 152 153 153 154 155 157 158 158 159 159 160
57 59 61 64 66 69 72 76 80 83 86 89 93 97 100 102 104 107 109 111 112 114 116 120 125 129 133 136 138 141 144 148 150 153 156 157 157 157 157 157 157 156 156 157 157 158 159 159 158 157 156 156 156 157 157 156 155 154 155 154 153 152 151 151 151 151 151 152 153 155 156 156 157 158
55 57 59 61 63 65 68 71 74 78 82 85 88 91 95 98 101 103 106 108 109 110 113 116 121 126 129 131 133 136 140 143 145 148 151 153 155 156 157 157 158 158 158 158 159 159 160 160 160 160 158 157 156 157 158 157 156 155 155 155 155 154 153 152 151 151 150 150 151 152 152 153 154 156
52 54 56 58 60 62 65 68 71 74 77 80 83 86 89 92 96 99 102 104 105 107 109 113 117 121 125 127 128 131 135 139 140 142 145 147 150 153 156 157 158 159 160 161 161 161 161 161 161 161 160 159 158 157 157 158 157 156 155 155 156 156 155 155 153 153 152 151 150 150 150 151 151 152
49 51 54 56 58 60 62 64 67 70 73 76 79 82 84 87 90 94 97 99 101 103 106 109 113 117 120 122 124 126 130 133 134 136 139 142 145 149 153 156 158 160 160 161 161 162 162 162 162 162 161 161 160 158 158 158 158 157 157 156 156 157 157 157 156 155 154 153 152 151 151 151 150 150
45 48 51 53 55 57 59 62 64 66 69 72 75 78 81 84 86 89 91 94 97 99 102 105 109 112 116 118 120 122 125 128 129 131 134 137 139 143 147 149 153 156 159 160 160 161 161 162 162 163 162 162 162 160 159 158 158 158 158 157 157 157 158 159 159 158 157 156 155 154 153 152 151 151
40 44 47 49 52 54 56 58 60 63 65 68 70 73 77 80 83 85 87 89 91 94 97 101 104 107 111 115 117 119 121 123 125 127 130 132 134 137 140 142 144 149 153 157 159 160 161 162 162 163 163 163 163 162 161 160 159 159 159 158 158 158 158 159 160 160 159 158 157 156 155 154 153 153
35 39 42 45 47 50 52 54 56 59 61 64 66 69 72 75 78 81 83 85 87 89 92 95 98 102 107 111 114 116 117 119 121 123 125 127 129 131 133 135 137 141 146 151 155 157 159 161 161 161 162 162 162 162 162 161 160 160 160 160 159 158 158 158 159 160 160 160 159 158 158 157 156 155
31 34 37 40 43 45 48 50 52 54 56 59 61 64 67 70 73 76 79 82 84 86 88 91 94 97 101 105 109 111 113 116 117 119 120 121 123 125 126 128 131 135 140 144 147 150 154 157 158 159 159 160 161 161 161 161 161 161 160 160 159 158 157 157 158 159 160 161 161 160 160 159 159 158
27 30 32 35 37 40 43 46 48 50 51 53 56 59 62 64 67 70 73 76 80 83 85 88 90 92 95 99 103 106 108 111 113 114 115 116 117 119 121 124 126 130 133 137 139 141 145 150 153 155 156 158 159 159 160 160 160 160 160 159 159 158 158 157 157 158 159 160 160 161 160 160 160 160
25 27 28 30 33 35 38 41 43 46 48 49 51 54 56 59 62 65 68 70 74 77 80 84 86 88 91 94 97 100 103 105 107 109 111 112 113 115 117 119 122 124 127 130 132 134 136 141 145 148 151 154 156 157 158 158 159 159 158 158 157 157 157 157 157 157 158 158 159 160 160 160 160 160
23 25 26 28 29 31 33 36 38 41 44 46 48 50 52 55 57 60 63 65 68 71 74 77 81 84 87 90 92 95 97 99 102 104 106 108 110 111 113 115 117 120 122 125 126 127 129 132 136 140 143 147 151 153 154 156 156 157 156 156 156 156 156 156 156 156 157 157 158 158 158 159 159 160
21 22 24 26 27 28 30 32 34 36 39 42 44 47 49 51 53 56 58 60 63 65 68 71 74 77 81 85 88 91 93 95 97 98 100 103 106 108 109 111 114 116 118 120 121 122 123 125 129 131 135 139 143 146 149 151 153 154 154 154 154 154 154 154 155 155 156 156 157 157 157 157 158 158
18 20 22 23 25 26 28 29 31 32 35 37 40 43 45 48 50 52 54 56 58 61 63 65 68 70 74 78 81 85 88 91 92 94 95 98 100 103 106 108 111 112 114 115 116 117 118 120 122 125 127 130 134 138 141 144 147 149 151 152 152 152 152 152 153 153 154 155 156 156 156 156 157 157
17 18 19 21 22 24 26 27 29 30 32 34 36 39 41 44 47 49 51 53 55 57 59 61 63 65 67 70 74 78 82 85 88 90 92 94 96 98 101 104 106 108 109 110 111 111 112 114 117 119 121 123 126 129 133 136 139 143 145 147 148 149 150 150 150 151 151 152 154 155 155 156 156 156
15 16 18 19 20 22 23 25 27 28 30 32 34 35 38 40 42 45 47 49 52 53 55 57 59 60 62 64 67 70 74 78 81 84 87 90 92 94 96 98 100 102 103 104 105 107 108 110 112 113 115 117 120 122 126 129 132 135 138 141 143 145 146 147 148 149 149 150 151 152 153 154 155 155
14 15 16 17 18 19 21 22 24 26 28 30 32 34 35 37 39 42 44 46 48 50 52 54 55 57 58 60 62 65 68 71 74 77 81 84 88 90 92 94 95 96 97 98 100 101 103 105 107 108 109 111 114 117 120 123 125 129 132 135 138 140 141 143 144 146 147 148 148 149 150 152 153 153
14 14 14 15 17 18 19 20 22 23 25 27 29 31 33 35 37 39 41 43 45 47 48 50 52 54 55 57 58 60 63 65 68 70 73 77 81 84 86 88 91 92 92 93 94 95 97 99 102 103 105 106 108 111 114 117 120 123 126 129 132 134 136 138 140 142 144 145 146 146 147 148 149 150
13 13 14 14 15 16 17 19 20 21 23 24 26 28 30 33 35 37 39 40 42 44 45 47 49 50 52 54 55 57 58 60 62 64 67 70 73 76 79 82 85 87 88 89 90 91 93 95 97 99 100 102 104 107 109 111 114 117 120 123 125 127 129 132 134 137 139 140 141 142 143 144 145 146
13 13 13 14 14 15 16 17 18 20 21 23 24 26 28 30 32 34 36 38 40 42 43 44 45 47 49 50 52 53 54 56 58 60 63 65 68 70 73 76 79 81 83 85 87 89 91 92 94 95 96 97 99 101 104 106 108 111 113 116 119 121 123 126 128 131 133 134 136 137 138 139 140 141
13 13 13 13 14 14 15 16 17 18 20 21 22 24 25 27 29 31 33 34 37 39 41 42 43 44 46 47 48 49 51 53 55 57 59 61 63 66 69 70 73 76 78 80 83 86 88 91 92 92 93 93 94 95 98 100 103 105 108 110 113 115 118 120 123 125 127 128 130 131 132 133 134 136
14 14 14 13 14 14 15 15 16 17 18 19 21 22 23 25 27 28 30 31 33 35 37 39 41 42 43 45 46 47 49 51 52 54 55 57 59 62 63 65 67 70 73 75 78 81 85 88 89 90 91 90 90 90 92 94 97 100 102 105 108 110 113 115 117 119 121 123 124 126 127 128 129 130
16 15 15 15 14 14 15 15 16 17 17 18 19 20 21 23 24 26 27 28 29 31 33 35 38 40 42 43 44 45 46 48 49 51 52 54 55 57 58 60 62 65 68 71 74 77 80 83 86 87 88 88 88 87 88 89 91 93 96 99 102 104 107 110 112 113 116 117 119 120 122 123 124 125
18 17 16 15 15 15 15 15 16 16 16 16 17 18 19 21 22 23 25 26 26 28 29 32 35 37 40 41 42 43 45 46 46 47 49 50 52 53 54 56 58 61 63 66 69 72 75 78 81 83 84 85 85 85 85 86 86 87 89 92 95 98 100 103 105 107 109 111 113 115 117 118 119 121
19 18 17 16 16 16 16 16 16 16 15 15 16 16 17 18 19 21 22 23 24 26 27 29 32 34 36 37 39 41 43 44 45 46 47 48 49 51 52 53 55 57 60 62 65 67 70 72 75 78 80 81 82 82 82 82 83 83 84 86 88 90 93 96 99 101 104 106 108 110 112 113 115 116
20 19 18 17 17 17 17 17 17 16 16 15 15 14 15 16 17 19 20 21 22 23 25 27 29 31 32 34 36 38 39 41 43 44 45 46 47 48 49 50 52 54 56 59 61 63 65 67 69 72 75 77 78 79 79 80 80 80 81 82 83 85 87 89 92 95 98 100 103 105 107 108 110 112
21 20 19 19 18 17 17 17 17 17 16 15 14 14 14 14 15 16 17 18 19 20 22 24 26 28 29 31 32 34 36 38 40 42 43 44 45 46 47 48 50 51 53 55 58 59 61 63 65 68 70 73 75 76 78 78 79 79 79 80 80 81 82 83 85 87 90 93 96 98 101 103 106 108
22 21 20 20 19 18 18 17 17 17 16 16 15 14 14 13 14 14 15 16 17 18 19 21 23 25 27 28 29 31 33 35 37 39 41 42 43 44 45 46 47 49 51 53 54 56 58 60 62 64 66 68 70 73 75 76 77 78 79 79 79 79 79 80 81 83 85 87 89 91 94 97 100 102
22 22 21 21 20 19 18 18 17 17 17 16 15 15 14 13 13 13 14 14 15 16 17 18 20 22 24 25 28 29 31 32 34 36 38 40 41 42 43 44 45 47 48 50 52 53 55 57 59 61 62 64 67 69 71 72 74 75 76 77 77 77 78 78 80 81 82 84 86 88 90 92 94 96
21 21 21 21 21 20 19 18 17 17 17 17 16 16 15 14 13 12 12 13 13 14 15 16 18 19 21 23 26 27 28 29 31 34 35 37 39 40 41 43 44 45 46 48 49 51 53 54 56 59 61 63 64 66 67 69 70 72 73 74 75 76 76 77 78 79 80 82 83 85 87 90 92 93
21 21 21 21 21 21 20 19 18 17 17 17 17 16 15 15 14 13 12 12 12 13 13 14 15 17 19 21 23 25 26 27 29 31 33 35 37 38 40 41 42 43 45 46 47 49 50 52 54 56 58 60 62 64 66 67 68 69 71 72 73 73 74 75 76 77 78 79 81 82 84 86 88 90
21 21 21 21 21 21 21 20 19 17 16 16 16 16 16 15 14 13 12 12 12 12 12 12 13 14 16 18 20 22 24 26 28 29 30 32 34 35 36 38 39 41 42 44 45 47 48 50 51 52 54 57 59 61 64 65 67 68 69 69 70 71 71 72 73 74 75 77 78 80 82 83 85 86
21 21 21 21 21 20 20 20 19 18 17 16 16 16 16 15 14 13 13 12 11 11 12 12 12 12 13 15 17 20 22 24 25 27 28 29 30 32 33 35 36 38 39 41 43 44 45 47 48 49 51 53 55 57 59 61 63 65 66 67 68 69 70 71 71 72 73 74 76 78 80 81 82 83
22 21 20 20 20 20 20 20 20 19 18 17 16 15 15 15 14 14 13 12 12 11 11 11 11 11 11 12 14 17 19 21 23 25 26 27 28 29 31 32 34 35 37 38 40 41 42 44 45 46 48 49 51 53 55 57 59 61 62 64 65 67 68 69 70 71 72 73 74 75 77 77 79 80
23 22 21 20 20 20 20 20 20 20 19 18 17 15 15 14 14 13 13 13 12 12 11 11 10 10 10 11 12 14 16 18 21 22 24 25 26 27 28 30 31 33 34 36 37 38 39 41 42 44 45 47 48 50 51 53 55 56 58 60 62 63 65 66 68 69 70 71 72 73 74 75 76 78
23 23 22 20 20 20 20 20 20 20 19 18 17 16 16 15 14 14 13 13 12 12 12 11 11 10 10 10 11 12 13 15 18 20 21 23 24 25 26 27 28 30 31 33 34 36 37 38 39 41 42 44 46 47 49 50 51 53 54 55 57 59 61 63 65 66 68 69 71 72 73 75 76 78
23 23 22 21 20 20 20 20 20 20 20 19 18 17 16 16 15 14 14 13 12 12 12 12 12 11 11 11 11 11 12 13 15 16 18 20 22 24 25 26 27 27 29 30 31 32 34 35 37 38 39 40 42 43 45 47 48 49 51 52 54 56 58 60 62 63 65 66 68 70 72 74 75 77
Wind_Direction
236 235 235 234 235 235 235 235 235 234 234 234 234 233 233 232 231 231 232 231 230 231 231 232 233 233 233 234 234 235 235 236 237 237 238 238 238 237 237 237 237 237 237 237 237 237 238 239 239 239 239 239 239 239 239 239 240 240 241 242 243 243 244 245 245 245 245 246 246 247 247 246 246 247
236 236 235 235 234 234 235 235 235 235 234 234 234 234 233 233 232 231 231 231 230 230 230 231 231 232 233 233 233 234 234 235 235 236 237 237 238 238 238 237 237 237 237 237 237 237 237 238 239 239 239 239 239 239 240 240 240 240 241 241 242 243 244 244 245 246 246 246 246 247 247 247 247 247
237 236 235 235 235 235 235 235 235 234 234 234 234 234 234 233 233 233 232 231 230 230 230 229 230 230 231 232 233 233 233 234 234 235 235 236 237 237 238 238 237 237 237 237 238 238 238 238 238 239 239 239 239 239 240 240 240 241 241 241 242 242 243 244 244 245 246 246 247 247 247 247 248 248
238 237 236 235 235 235 235 235 235 235 234 234 234 234 235 234 233 233 233 232 232 231 231 230 229 229 230 230 231 232 233 233 233 234 234 235 235 236 237 238 238 238 237 237 237 238 238 238 238 238 238 239 239 239 239 240 241 241 241 241 242 242 243 243 244 245 245 246 247 247 247 247 247 248
238 237 237 236 235 235 235 236 236 235 235 234 234 234 234 234 234 234 233 233 232 233 233 231 230 229 229 229 230 230 231 232 232 233 233 234 234 235 236 237 238 238 238 238 237 237 238 238 238 238 238 238 238 239 239 239 240 241 242 242 242 242 243 243 244 244 245 246 247 247 247 247 247 247
238 237 237 236 236 235 235 235 236 236 236 235 234 234 234 234 234 234 234 233 232 232 234 233 232 231 230 230 229 229 229 231 232 232 232 232 233 233 234 235 237 238 238 238 238 238 238 238 238 238 238 238 238 238 239 239 239 240 241 242 242 242 243 243 244 244 245 246 246 247 248 248 248 247
240 239 237 237 236 236 235 234 235 236 236 236 235 235 234 234 234 234 234 233 231 231 233 234 233 233 233 231 230 229 229 229 230 231 231 232 232 232 233 234 235 236 237 238 238 238 238 238 238 239 239 239 238 238 238 239 239 239 240 241 242 242 243 243 243 244 244 245 246 247 247 248 248 248
240 240 239 238 237 236 236 235 234 234 235 236 236 236 235 234 234 234 234 233 232 231 231 233 233 233 234 234 232 231 231 230 229 230 231 231 231 231 232 232 233 234 236 237 238 238 238 238 237 238 239 239 239 239 238 238 239 239 240 240 241 242 243 243 244 244 244 245 246 246 247 248 248 249
239 239 239 239 238 237 236 236 235 235 234 235 236 236 236 235 235 235 235 234 233 232 231 232 233 233 234 235 234 234 233 232 231 230 230 231 231 231 231 231 232 233 234 235 237 238 238 238 237 237 238 238 239 240 239 238 239 239 240 240 240 241 242 243 244 244 244 245 245 246 247 247 248 249
240 239 238 238 238 238 237 237 236 236 235 235 235 235 236 236 235 235 235 235 234 233 232 232 232 233 233 234 234 235 234 234 233 232 231 231 231 232 232 232 232 232 233 234 235 236 237 238 238 237 237 237 238 239 240 239 239 239 239 240 240 241 241 242 243 244 244 245 246 246 247 247 248 249
241 240 239 238 238 238 237 237 237 236 236 236 235 235 235 235 235 235 235 235 234 234 233 233 233 233 234 233 234 235 235 235 235 234 233 233 232 232 232 232 232 232 232 233 233 235 236 237 238 238 237 237 237 238 239 239 239 239 239 240 240 241 241 242 243 243 244 244 245 246 247 247 248 248
243 243 242 240 239 238 238 237 237 236 236 237 236 236 235 235 235 235 235 235 235 234 233 233 233 234 235 234 234 234 235 236 235 235 235 234 234 233 232 232 233 233 233 232 233 233 234 236 237 238 238 238 237 237 238 239 239 239 239 239 240 241 241 241 242 243 243 244 245 245 246 247 247 248
243 243 243 243 242 241 240 239 238 237 237 237 237 236 236 236 236 236 236 235 235 234 233 233 233 234 235 236 235 235 235 236 236 236 236 235 235 234 233 233 233 233 234 234 234 234 234 235 236 237 238 238 238 238 237 238 238 239 239 239 239 240 241 241 242 242 242 243 244 245 245 246 247 248
243 243 243 243 244 243 243 242 241 240 238 238 237 237 237 236 236 236 236 236 235 235 234 234 233 234 235 236 236 235 236 236 236 236 236 236 236 235 235 234 234 234 235 235 235 235 235 235 235 236 237 238 238 238 238 238 238 238 239 239 239 239 240 241 242 242 242 242 243 244 245 245 246 247
244 243 243 244 244 244 244 244 243 242 241 240 239 238 237 237 237 237 236 236 236 235 235 234 234 234 234 235 236 236 236 236 236 236 236 237 236 236 236 236 235 235 235 235 236 236 236 236 236 236 237 237 238 239 238 238 238 239 239 239 239 239 239 240 241 242 242 242 243 243 244 245 246 246
244 244 243 244 244 244 244 245 245 244 243 242 241 240 239 238 238 238 237 237 236 236 235 235 235 234 235 235 235 236 236 236 237 236 236 237 237 237 237 237 236 236 235 235 235 236 237 237 237 237 237 238 238 239 239 239 239 239 239 239 239 239 239 240 240 241 242 243 243 243 243 244 245 246
248 245 244 243 243 244 244 244 245 245 245 244 243 242 241 240 239 238 238 238 237 236 236 235 235 235 235 235 236 236 236 236 237 237 237 237 237 237 238 238 237 237 237 236 236 236 236 238 238 239 239 239 239 239 240 240 240 240 240 240 240 240 240 240 240 241 241 242 243 243 243 244 244 245
251 250 247 245 244 243 243 244 244 245 245 245 244 244 243 242 241 240 239 238 238 237 237 236 235 235 235 236 236 236 236 236 237 237 238 238 237 237 238 238 238 238 238 238 237 236 236 237 238 238 239 240 240 240 240 241 241 241 241 241 241 241 241 241 241 241 241 242 243 243 244 244 245 245
254 253 251 249 247 245 243 243 243 243 244 244 244 244 244 243 243 242 241 239 238 237 237 237 237 236 236 236 236 236 236 236 237 237 237 238 237 237 237 237 238 238 238 238 238 237 236 236 237 237 238 239 240 240 241 241 242 242 242 242 242 242 242 242 242 242 242 243 243 243 244 244 245 245
257 255 253 252 249 247 245 244 243 242 243 243 243 244 244 244 244 243 243 242 241 239 238 237 237 237 237 237 237 237 237 236 236 236 237 237 238 237 237 237 238 238 238 238 238 238 237 237 237 237 237 238 239 240 240 241 242 243 243 243 243 242 242 242 243 243 243 244 244 244 244 244 245 245
261 258 256 254 252 251 248 246 244 243 242 242 242 242 243 243 243 243 243 243 243 242 241 239 238 237 237 237 238 238 238 237 237 236 236 236 237 237 237 237 237 238 238 238 238 238 237 237 237 237 237 237 238 239 239 240 241 242 243 243 243 243 243 243 243 243 243 244 244 245 245 245 245 245
265 261 259 257 255 253 252 250 248 245 243 242 241 241 242 242 242 243 243 243 243 243 242 241 240 239 238 237 238 238 238 238 238 237 236 236 236 236 237 237 237 237 238 238 238 238 237 237 237 237 237 237 237 238 238 239 240 241 242 243 244 244 244 243 243 243 243 244 244 245 245 246 246 246
270 266 262 259 256 254 253 252 250 249 247 245 243 242 241 241 242 242 242 242 242 242 242 242 242 241 240 239 238 238 238 238 238 238 238 237 236 236 236 237 237 237 238 238 238 238 237 237 237 237 237 237 237 237 237 238 239 240 241 242 243 243 244 244 244 244 243 243 244 245 245 246 246 247
274 271 267 263 260 257 254 253 251 251 249 248 246 245 243 242 241 241 242 242 242 242 242 242 242 242 241 240 239 239 238 238 238 237 237 238 237 237 237 237 237 237 237 238 238 238 238 238 238 237 237 237 237 237 237 237 238 238 239 240 241 242 243 243 244 244 244 244 243 244 245 245 246 247
281 276 272 268 265 261 258 255 253 252 251 250 249 247 246 244 243 242 241 241 241 242 241 241 241 241 241 241 240 240 239 239 238 237 237 237 238 238 237 237 237 237 237 237 238 238 238 238 238 237 237 237 237 237 237 237 237 237 238 239 240 241 241 242 243 243 244 244 243 243 244 245 245 246
290 285 280 276 272 267 263 259 256 253 251 251 250 250 248 247 246 244 243 242 241 241 241 241 241 241 240 240 240 240 240 239 239 238 237 237 237 237 238 238 238 238 238 237 237 238 238 238 238 238 237 236 236 236 237 237 237 237 238 238 239 240 240 241 242 242 243 243 243 243 243 244 244 245
295 289 284 279 275 272 268 265 261 257 254 251 250 250 249 248 247 246 245 244 243 242 241 241 241 240 240 240 240 239 239 240 240 240 239 238 237 237 237 237 238 238 238 238 237 237 237 237 237 237 237 236 236 236 236 236 237 237 238 238 239 239 240 240 241 242 242 243 243 243 243 244 244 244
301 296 290 284 279 275 271 269 266 262 259 256 252 250 249 248 247 247 246 245 244 244 243 242 241 240 240 240 240 240 239 239 239 239 239 238 238 237 236 235 236 236 236 236 236 236 237 237 237 237 237 236 235 235 235 235 236 237 237 238 239 239 239 240 240 241 242 243 243 244 244 244 244 244
307 303 299 294 288 282 278 275 271 267 264 261 258 255 252 250 249 247 246 244 244 244 244 243 242 241 241 240 240 239 239 238 238 238 238 237 237 237 236 235 234 234 234 235 235 235 235 236 236 236 236 236 236 235 235 235 235 235 236 237 238 239 239 240 240 241 242 242 243 244 244 244 244 244
309 304 300 297 292 288 284 280 277 273 269 266 263 260 257 254 252 250 248 245 243 243 243 243 242 241 241 240 239 238 237 237 237 238 238 238 237 237 237 236 235 234 233 233 233 234 234 235 235 235 236 236 236 236 236 235 235 235 235 236 236 237 238 239 240 240 241 242 243 243 244 244 244 244
312 305 300 297 294 290 287 284 281 276 272 269 267 264 262 259 256 254 252 248 245 243 242 241 241 240 239 239 238 238 237 236 236 236 237 237 237 237 237 236 235 234 234 232 232 232 232 233 234 234 234 235 235 235 235 235 235 235 235 235 236 236 237 238 239 240 241 241 242 243 243 244 244 244
313 307 301 298 296 293 290 288 284 280 276 272 269 267 265 263 260 257 255 252 248 244 242 241 240 240 239 239 238 237 237 236 236 235 235 236 236 236 236 235 234 233 234 233 233 232 232 232 232 233 233 233 233 234 234 235 235 236 235 235 235 236 236 237 238 239 240 241 241 242 243 243 244 244
313 309 305 302 299 296 294 291 289 285 281 277 273 271 270 268 265 262 258 255 251 247 244 242 240 240 240 239 238 237 237 236 236 235 234 234 235 235 235 234 233 232 232 232 232 233 232 232 232 232 232 232 232 232 233 234 235 236 236 236 236 236 236 236 237 238 238 239 240 241 242 242 243 244
314 311 308 304 301 299 297 295 293 289 285 281 279 277 275 273 270 267 264 259 254 249 245 243 242 240 239 239 238 237 237 236 236 235 234 233 233 233 234 234 233 232 231 231 231 231 231 231 232 231 231 230 230 230 230 232 233 235 235 236 236 236 236 237 237 237 238 238 239 240 241 241 242 243
314 312 309 305 303 301 300 298 296 293 289 286 282 279 277 276 273 271 268 263 258 252 247 244 243 241 240 239 238 238 237 236 235 236 235 234 232 231 231 232 232 232 231 231 230 230 229 230 230 230 230 230 229 228 228 229 230 232 233 234 235 236 236 237 237 238 238 239 239 240 240 241 242 242
315 312 310 306 304 303 302 300 298 296 293 290 286 283 280 278 275 272 269 266 262 256 249 245 243 242 240 238 238 237 236 235 235 235 236 235 233 232 230 230 231 231 231 231 230 230 229 228 229 229 229 229 229 228 227 227 228 230 231 232 233 234 235 236 236 237 238 238 239 239 240 241 241 242
314 312 310 308 306 305 302 301 300 299 297 295 291 288 285 282 278 273 270 267 264 261 255 248 244 241 239 237 236 235 234 233 233 233 234 235 234 233 231 230 229 229 230 231 231 230 229 228 228 228 228 229 229 229 228 228 229 230 231 232 233 233 234 235 235 236 236 237 238 238 238 239 240 241
315 313 310 309 308 306 303 301 300 300 299 298 295 293 289 286 282 277 272 268 265 262 258 253 247 242 238 237 236 235 234 233 232 232 232 233 233 233 232 230 229 228 229 229 230 230 230 229 228 228 228 228 228 229 229 229 229 230 231 232 233 234 234 234 235 236 236 237 237 238 238 238 239 239
315 314 311 309 308 306 304 302 301 301 300 299 298 296 293 290 287 282 277 272 267 263 259 255 249 244 239 236 235 234 233 232 232 231 231 232 232 233 233 232 231 229 228 228 229 229 230 229 229 229 228 229 229 229 229 230 229 230 231 232 233 234 235 235 236 236 237 237 238 238 239 240 240 240
314 313 312 310 307 305 304 303 303 302 300 300 299 298 296 293 291 287 283 276 271 267 262 257 251 246 241 237 234 233 232 231 231 231 231 231 231 232 233 234 233 232 231 230 229 229 229 230 230 230 230 230 230 230 231 231 231 231 231 231 232 233 235 236 236 237 237 238 238 239 239 240 240 241
311 311 311 310 308 305 304 303 303 302 301 300 299 299 297 296 293 291 287 282 276 270 266 260 254 248 242 238 235 233 232 232 231 231 231 231 231 231 231 232 233 233 233 232 231 231 230 230 230 231 231 231 231 231 232 232 232 233 232 232 232 232 233 234 235 236 237 237 238 239 239 240 241 241
310 309 309 308 307 305 304 302 302 301 301 300 299 298 298 297 295 292 289 285 280 273 268 262 257 250 244 239 236 235 233 232 231 231 231 231 231 231 230 229 230 230 231 232 232 232 231 231 230 231 231 231 232 232 232 233 233 233 234 234 234 234 234 234 235 235 236 237 238 238 240 241 242 242
309 307 307 306 305 304 303 302 300 300 299 299 299 299 298 297 295 293 290 287 284 279 273 266 260 254 248 242 238 236 234 233 232 231 230 230 231 231 231 230 230 229 230 230 231 231 231 231 231 231 231 231 231 232 232 233 233 233 234 234 235 235 235 235 235 236 236 237 238 239 240 241 242 242
308 306 305 304 303 303 302 301 299 298 298 297 298 299 299 298 297 294 291 288 285 282 278 273 265 257 249 244 239 237 235 234 233 232 231 230 230 230 231 231 231 230 230 230 230 230 230 230 231 231 231 231 231 232 232 233 233 234 234 235 235 235 235 236 236 236 236 237 238 238 239 240 241 242
308 306 303 302 301 300 300 299 298 297 296 296 296 296 297 298 298 296 293 289 285 282 279 276 270 262 254 246 240 237 235 233 233 233 232 231 230 230 230 231 231 231 231 231 231 231 231 230 231 231 231 232 232 232 233 233 234 235 235 236 236 236 236 236 236 237 237 237 238 238 239 240 241 242